Tracking 19564 objects as of 20-Mar-2019
HD Live streaming from Space Station
objects crossing your sky now

FENGYUN 1C DEB

Track FENGYUN 1C DEB now!
10-day predictions


NORAD ID: 30391
Int'l Code: 1999-025ADE
Perigee: 817.6 km
Apogee: 932.3 km
Inclination: 99.0 °
Period: 102.3 minutes
Semi major axis: 7245 km
RCS: 0.0444 m2 (small)
Launch date: May 10, 1999
Source: People's Republic of China (PRC)
Launch site: Taiyaun Space Center, China (TSC)

Note: This is SATELLITE DEBRIS
aabbcc
Your satellite tracking list
Your tracking list is empty




NASA's NSSDC Master Catalog

Two Line Element Set (TLE):
1 30391U 99025ADE 19077.80174808 +.00000232 +00000-0 +15986-3 0  9990
2 30391 098.9986 120.0128 0079124 001.0244 058.2076 14.07537654621969
Source of the keplerian elements: AFSPC